Monticello, IA

8:04 AM CDT on September 26, 2016 (GMT -0500)
Monticello Regional

Weather History for KMXO - July, 2013

Change the Weather History Date:

Friday, July 26, 2013

  Actual Average Record
Temperature  
Mean Temperature 68 °F -  
Max Temperature 77 °F 81 °F 93 °F (1997)
Min Temperature 60 °F 61 °F -99 °F (2001)
Cooling Degree Days 4    
Growing Degree Days 18 (Base 50)    
Moisture  
Dew Point 61 °F    
Average Humidity 78    
Maximum Humidity 100    
Minimum Humidity 50    
Precipitation  
Precipitation 0.24 in - - ()
Sea Level Pressure  
Sea Level Pressure 29.96 in    
Wind  
Wind Speed 10 mph (West)    
Max Wind Speed 22 mph    
Max Gust Speed 31 mph    
Visibility 10 miles    
Events Rain    
Averages and records for this station are not official NWS values.
T = Trace of Precipitation, MM = Missing Value Source: NWS Daily Summary

Daily Weather History Graph

Daily Weather History Graph

Search for Another Location

Airport or City:

Trip Planner

Search our weather history database for the weather conditions in past years. The results will help you decide how hot, cold, wet, or windy it might be!

Date:

Astronomy

Jul. 26, 2013 Rise Set
Actual Time 5:51 AM CDT 8:29 PM CDT
Civil Twilight 5:19 AM CDT 9:02 PM CDT
Nautical Twilight 4:39 AM CDT 9:42 PM CDT
Astronomical Twilight 3:52 AM CDT 10:28 PM CDT
Moon 10:37 PM CDT 10:34 AM CDT
Length of Visible Light 15h 42m
Length of Day
14h 38m
Waning Gibbous, 80% of the Moon is Illuminated
Jul 26
Waning Gibbous
Jul 29
Last Quarter
Aug 6
New
Aug 14
First Quarter
Aug 20
Full

Hourly Weather History & Observations

Time (CDT) Temp. Dew Point Humidity Pressure Visibility Wind Dir Wind Speed Gust Speed Precip Events Conditions
12:15 AM 64.4 °F 62.6 °F 94% 30.04 in 6.0 mi South 9.2 mph - N/A Rain Rain
12:35 AM 64.4 °F 62.6 °F 94% 30.04 in 10.0 mi South 6.9 mph - N/A Rain Light Rain
12:55 AM 64.4 °F 62.6 °F 94% 30.05 in 7.0 mi SSW 9.2 mph - 0.07 in Rain Light Rain
1:15 AM 64.4 °F 62.6 °F 94% 30.03 in 6.0 mi South 5.8 mph - N/A Rain Light Rain
1:35 AM 64.4 °F 62.6 °F 94% 30.02 in 8.0 mi SW 6.9 mph - N/A Rain Light Rain
1:55 AM 64.4 °F 62.6 °F 94% 30.01 in 6.0 mi SSW 11.5 mph - 0.12 in Rain Light Rain
2:15 AM 64.4 °F 60.8 °F 88% 29.99 in 6.0 mi South 13.8 mph - N/A Rain Light Rain
2:35 AM 62.6 °F 60.8 °F 94% 29.97 in 10.0 mi South 12.7 mph - N/A   Mostly Cloudy
2:55 AM 62.6 °F 60.8 °F 94% 29.97 in 10.0 mi South 10.4 mph - 0.01 in   Scattered Clouds
3:15 AM 62.6 °F 60.8 °F 94% 29.96 in 5.0 mi South 10.4 mph - N/A Rain Light Rain
3:35 AM 62.6 °F 60.8 °F 94% 29.94 in 9.0 mi South 12.7 mph 19.6 mph N/A Rain Light Rain
3:55 AM 64.4 °F 60.8 °F 88% 29.96 in - SSW 5.8 mph 11.5 mph 0.04 in   Unknown
4:15 AM 64.4 °F 60.8 °F 88% 29.96 in 10.0 mi SSW 5.8 mph - N/A   Mostly Cloudy
4:35 AM 64.4 °F 62.6 °F 94% 29.96 in 10.0 mi Calm Calm - N/A   Overcast
4:55 AM 64.4 °F 62.6 °F 94% 29.96 in 10.0 mi Calm Calm - N/A   Overcast
5:15 AM 64.4 °F 62.6 °F 94% 29.95 in 10.0 mi South 4.6 mph - N/A   Overcast
5:35 AM 64.4 °F 64.4 °F 100% 29.95 in 10.0 mi South 3.5 mph - N/A   Overcast
5:55 AM 66.2 °F 64.4 °F 94% 29.95 in 10.0 mi SSW 4.6 mph - N/A   Overcast
6:15 AM 66.2 °F 64.4 °F 94% 29.95 in 10.0 mi Calm Calm - N/A   Overcast
6:35 AM 66.2 °F 64.4 °F 94% 29.96 in 10.0 mi SSW 4.6 mph - N/A   Overcast
6:55 AM 66.2 °F 64.4 °F 94% 29.96 in 10.0 mi South 4.6 mph - N/A   Overcast
7:15 AM 66.2 °F 64.4 °F 94% 29.97 in 10.0 mi SSW 5.8 mph - N/A   Overcast
7:35 AM 66.2 °F 64.4 °F 94% 29.97 in 10.0 mi SW 6.9 mph - N/A   Overcast
7:55 AM 66.2 °F 64.4 °F 94% 29.97 in 10.0 mi SSW 4.6 mph - N/A   Overcast
8:15 AM 66.2 °F 64.4 °F 94% 29.97 in 10.0 mi SW 6.9 mph - N/A   Overcast
8:35 AM 68.0 °F 66.2 °F 94% 29.97 in 10.0 mi SW 8.1 mph - N/A   Overcast
8:55 AM 68.0 °F 66.2 °F 94% 29.96 in 10.0 mi SW 10.4 mph - N/A   Overcast
9:15 AM 68.0 °F 66.2 °F 94% 29.96 in 10.0 mi SW 6.9 mph 15.0 mph N/A   Overcast
9:35 AM 68.0 °F 66.2 °F 94% 29.96 in 10.0 mi SW 6.9 mph 13.8 mph N/A   Overcast
9:55 AM 69.8 °F 66.2 °F 88% 29.96 in 10.0 mi SW 8.1 mph - N/A   Overcast
10:15 AM 71.6 °F 68.0 °F 88% 29.95 in 10.0 mi WSW 9.2 mph - N/A   Overcast
10:35 AM 71.6 °F 68.0 °F 88% 29.95 in 10.0 mi WSW 9.2 mph - N/A   Overcast
10:55 AM 73.4 °F 68.0 °F 83% 29.95 in 10.0 mi SW 11.5 mph - N/A   Overcast
11:15 AM 75.2 °F 68.0 °F 78% 29.95 in 10.0 mi West 11.5 mph - N/A   Mostly Cloudy
11:35 AM 75.2 °F 66.2 °F 73% 29.94 in 10.0 mi WNW 6.9 mph - N/A   Mostly Cloudy
11:55 AM 75.2 °F 66.2 °F 73% 29.94 in 10.0 mi West 12.7 mph - N/A   Mostly Cloudy
12:15 PM 77.0 °F 66.2 °F 69% 29.94 in 10.0 mi West 15.0 mph - N/A   Mostly Cloudy
12:35 PM 77.0 °F 66.2 °F 69% 29.94 in - WNW 12.7 mph - N/A   Scattered Clouds
12:55 PM 77.0 °F 66.2 °F 69% 29.93 in 10.0 mi WNW 13.8 mph 19.6 mph N/A   Scattered Clouds
1:15 PM 77.0 °F 66.2 °F 69% 29.92 in 10.0 mi WNW 10.4 mph 19.6 mph N/A   Mostly Cloudy
1:35 PM 77.0 °F 66.2 °F 69% 29.92 in 10.0 mi West 15.0 mph - N/A   Partly Cloudy
1:55 PM 77.0 °F 66.2 °F 69% 29.92 in 10.0 mi NW 17.3 mph 24.2 mph N/A   Scattered Clouds
2:15 PM 77.0 °F 62.6 °F 61% 29.92 in 10.0 mi WNW 15.0 mph 26.5 mph N/A   Partly Cloudy
2:35 PM 77.0 °F 62.6 °F 61% 29.92 in 10.0 mi WNW 15.0 mph 21.9 mph N/A   Partly Cloudy
2:55 PM 77.0 °F 59.0 °F 54% 29.93 in 10.0 mi WNW 19.6 mph - N/A   Partly Cloudy
3:15 PM 75.2 °F 55.4 °F 50% 29.93 in 10.0 mi WNW 18.4 mph 27.6 mph N/A   Clear
3:35 PM 75.2 °F 55.4 °F 50% 29.92 in 10.0 mi NW 20.7 mph 27.6 mph N/A   Clear
3:55 PM 75.2 °F 57.2 °F 53% 29.93 in 10.0 mi NW 18.4 mph 29.9 mph N/A   Clear
4:15 PM 73.4 °F 57.2 °F 57% 29.93 in 10.0 mi WNW 20.7 mph 29.9 mph N/A   Scattered Clouds
4:35 PM 73.4 °F 57.2 °F 57% 29.93 in 10.0 mi WNW 18.4 mph 27.6 mph N/A   Partly Cloudy
4:55 PM 73.4 °F 57.2 °F 57% 29.94 in 10.0 mi WNW 21.9 mph 31.1 mph N/A   Scattered Clouds
5:15 PM 71.6 °F 57.2 °F 60% 29.95 in 10.0 mi NW 20.7 mph 29.9 mph N/A   Scattered Clouds
5:35 PM 71.6 °F 55.4 °F 57% 29.95 in 10.0 mi WNW 17.3 mph 25.3 mph N/A   Partly Cloudy
5:55 PM 71.6 °F 55.4 °F 57% 29.96 in 10.0 mi NW 18.4 mph - N/A   Clear
6:15 PM 71.6 °F 55.4 °F 57% 29.96 in 10.0 mi NW 18.4 mph 26.5 mph N/A   Clear
6:35 PM 71.6 °F 55.4 °F 57% 29.96 in 10.0 mi NW 15.0 mph 25.3 mph N/A   Clear
6:55 PM 71.6 °F 55.4 °F 57% 29.96 in 10.0 mi NW 13.8 mph 20.7 mph N/A   Clear
7:15 PM 71.6 °F 55.4 °F 57% 29.96 in 10.0 mi NW 16.1 mph 21.9 mph N/A   Clear
7:35 PM 69.8 °F 55.4 °F 60% 29.96 in 10.0 mi NW 17.3 mph - N/A   Clear
7:55 PM 69.8 °F 55.4 °F 60% 29.96 in 10.0 mi NW 11.5 mph 18.4 mph N/A   Clear
8:15 PM 68.0 °F 57.2 °F 68% 29.96 in 10.0 mi NW 9.2 mph - N/A   Clear
8:35 PM 66.2 °F 57.2 °F 73% 29.96 in 10.0 mi NW 9.2 mph - N/A   Partly Cloudy
8:55 PM 66.2 °F 57.2 °F 73% 29.97 in 10.0 mi WNW 9.2 mph - N/A   Mostly Cloudy
9:15 PM 66.2 °F 57.2 °F 73% 29.96 in 10.0 mi WNW 8.1 mph - N/A   Mostly Cloudy
9:35 PM 66.2 °F 57.2 °F 73% 29.97 in 10.0 mi NW 8.1 mph - N/A   Scattered Clouds
9:55 PM 64.4 °F 57.2 °F 77% 29.97 in 10.0 mi NW 5.8 mph 11.5 mph N/A   Mostly Cloudy
10:15 PM 64.4 °F 57.2 °F 77% 29.97 in 10.0 mi NW 6.9 mph - N/A   Mostly Cloudy
10:35 PM 62.6 °F 57.2 °F 82% 29.97 in 10.0 mi NNW 8.1 mph - N/A   Scattered Clouds
10:55 PM 62.6 °F 57.2 °F 82% 29.97 in 10.0 mi NNW 6.9 mph - N/A   Partly Cloudy
11:15 PM 62.6 °F 55.4 °F 77% 29.97 in 10.0 mi NNW 8.1 mph - N/A   Clear
11:35 PM 60.8 °F 55.4 °F 82% 29.98 in 10.0 mi NW 9.2 mph - N/A   Clear
11:55 PM 60.8 °F 55.4 °F 82% 29.98 in 10.0 mi NNW 10.4 mph - N/A   Clear